Regional Weather Roundup
Issued by NWS

Home | Current Version | Previous Version | Graphics & Text | Print | Product List | Glossary Off
Versions: 1 2 3 4 5 6 7 8 9 10 11 12 13 14 15 16 17 18 19 20 21 22 23 24 25 26 27 28 29 30 31 32 33 34 35 36 37 38 39 40 41 42 43 44 45 46 47 48 49 50

000
ASUS43 KTOP 300608
RWRKS

WEATHER ROUNDUP FOR KANSAS
NATIONAL WEATHER SERVICE GOODLAND KS
100 AM CDT WED JUL 30 2014

NOTE:  "FAIR" INDICATES FEW OR NO CLOUDS BELOW 12,000 FEET WITH NO
SIGNIFICANT WEATHER AND/OR OBSTRUCTIONS TO VISIBILITY.

KSZ001>006-013>018-027>032-041>047-300700-
NORTHWEST KANSAS

CITY           SKY/WX    TMP DP  RH WIND       PRES   REMARKS
GOODLAND       LGT RAIN  64  63  96 NW9       30.19S
6HR MIN TEMP:  64; 6HR MAX TEMP:  80; 6HR PCP:  0.18;

HAYS           CLOUDY    72  55  56 E10       30.12S
HILL CITY      CLOUDY    72  56  57 E8        30.14R
6HR MIN TEMP:  72; 6HR MAX TEMP:  84;

RUSSELL        CLOUDY    71  59  65 E8        30.10F
6HR MIN TEMP:  70; 6HR MAX TEMP:  85;

$$

KSZ061>065-074>080-084>089-300700-
SOUTHWEST KANSAS

CITY           SKY/WX    TMP DP  RH WIND       PRES   REMARKS
DODGE CITY     CLOUDY    69  59  70 SE7       30.11S
6HR MIN TEMP:  69; 6HR MAX TEMP:  76;

ELKHART          N/A     66  62  87 S14         N/A
GARDEN CITY    LGT RAIN  67  65  93 SE8       30.11F
6HR MIN TEMP:  66; 6HR MAX TEMP:  76; 6HR PCP:  0.48;

GREAT BEND     CLOUDY    72  59  64 E9        30.09F
LIBERAL        CLOUDY    66  61  82 SE6       30.11F
PRATT          CLOUDY    68  61  77 SW3       30.11S
$$

KSZ066>073-081>083-090>101-300700-
SOUTHEAST KANSAS

CITY           SKY/WX    TMP DP  RH WIND       PRES   REMARKS
CHANUTE        MOCLDY    67  62  84 CALM      30.10S
6HR MIN TEMP:  64; 6HR MAX TEMP:  77;

COFFEYVILLE    MOCLDY    70  65  84 NE5       30.08F
6HR MIN TEMP:  69; 6HR MAX TEMP:  82;

HUTCHINSON     MOCLDY    71  59  65 E9        30.09F
6HR MIN TEMP:  71; 6HR MAX TEMP:  86;

MEDICINE LODGE   N/A     72  63  73 S3        30.09F
NEWTON         MOCLDY    70  54  56 E5        30.14S
PARSONS        MOCLDY    67  62  84 CALM      30.10F
6HR MIN TEMP:  67; 6HR MAX TEMP:  79;

WICHITA INTL   MOCLDY    72  61  68 E10       30.09S
6HR MIN TEMP:  72; 6HR MAX TEMP:  86;

WICHITA JABRA  MOCLDY    69  59  70 SE8       30.09F
6HR MIN TEMP:  68; 6HR MAX TEMP:  85;

WICHITA MCCONL MOCLDY    71  61  71 E10       30.10F
WINFIELD       MOCLDY    73  63  70 E7        30.10F
6HR MIN TEMP:  73; 6HR MAX TEMP:  86;

$$

KSZ007>012-019>026-033>040-048>060-102>105-300700-
NORTHEAST KANSAS

CITY           SKY/WX    TMP DP  RH WIND       PRES   REMARKS
CONCORDIA      CLOUDY    69  58  67 NE9       30.14R
6HR MIN TEMP:  69; 6HR MAX TEMP:  79;

EMPORIA        CLOUDY    65  60  84 SE5       30.11S
6HR MIN TEMP:  63; 6HR MAX TEMP:  76;

LAWRENCE       CLOUDY    68  62  81 CALM      30.11S
6HR MIN TEMP:  65; 6HR MAX TEMP:  80;

MANHATTAN      CLOUDY    73  59  61 NE7       30.12R
6HR MIN TEMP:  71; 6HR MAX TEMP:  82;

MARYSVILLE     PTCLDY    63  57  82 CALM      30.13S
OLATHE IND     MOCLDY    71  59  65 E3        30.12S
6HR MIN TEMP:  68; 6HR MAX TEMP:  80;

OLATHE EXE     MOCLDY    71  58  63 E3        30.11S
6HR MIN TEMP:  69; 6HR MAX TEMP:  81;

SALINA         CLOUDY    74  57  55 SE5       30.11S
6HR MIN TEMP:  74; 6HR MAX TEMP:  83;

TOPEKA BILLARD CLOUDY    70  63  78 CALM      30.12R
6HR MIN TEMP:  70; 6HR MAX TEMP:  82;

TOPEKA FORBES  MOCLDY    71  60  68 CALM      30.11F
6HR MIN TEMP:  70; 6HR MAX TEMP:  81;

$$



USA.gov is the U.S. government's official web portal to all federal, state and local government web resources and services.